Racecast

None

None · 5000m · Boys · Men's 5k · 2011-08-27

Course difficulty: —

View full meet →

Team scores

Place Team Points 12345 67
1 Plainview (TX) 32 3 5 7 8 9 12 16
2 Sundown (TX) 64 2 11 15 17 19
3 Tulia (TX) 97 10 18 20 21 28 36 47
4 Abernathy (TX) 133 4 23 25 39 42 46 57
5 Littlefield (TX) 140 1 27 29 30 53
6 Floydada (TX) 160 6 32 35 37 50 59 63
7 Slaton (TX) 165 13 22 24 51 55 58 60
8 Sudan (TX) 170 14 26 33 45 52 54
9 Olton (TX) 201 34 38 40 41 48 49 56
10 Muleshoe (TX) 241 31 43 44 61 62

Computed: five scorers, two displacers, incomplete teams removed. Not scored, fewer than five finishers: Petersburg (TX) (3), Cotton Center (3), Kress (3), Hart (TX) (2), Hart (CA) (2), Plains (TX) (2), Morton (IL) (2), Lorenzo (1).

Results

Place Athlete Grade School Time Rating Points
1 Joseph Rivas 2012 Littlefield (TX) 1 17:25 SR 1
2 Mo Sanchez 2014 Sundown (TX) 1 18:55 SR 2
3 Jarel Rosas 2015 Plainview (TX) 1 19:04 PR 3
4 Luis Macias 2015 Abernathy (TX) 1 19:05 PR 4
5 Eli Corona 2012 Plainview (TX) 2 19:15 PR 5
6 Bensolodo Perez 2013 Floydada (TX) 1 19:27 PR 6
7 Alejandro Feregrino 2012 Petersburg (TX) 1 19:41 PR
8 Jordan Castillo 2014 Plainview (TX) 3 19:43 PR 7
9 Kayne Gamez 2013 Plainview (TX) 4 19:56 PR 110.3 8
10 Christian Garcia 2015 Plainview (TX) 5 20:19 PR 9
11 Juan Barrera 2012 Tulia (TX) 1 20:31 PR 10
12 Jon Chavez 2015 Sundown (TX) 2 20:34 PR 11
13 Chris Salinas 2013 Plainview (TX) 6 20:36 PR 12
14 Ashton Pettis 2012 Slaton (TX) 1 20:39 PR 13
15 Isaih Trevizo 2015 Hart (CA) 1 20:43 PR
16 Christian Ruiz 2013 Sudan (TX) 1 20:49 PR 14
17 Collin Evans 2013 Sundown (TX) 3 20:50 SR 15
18 Dorian Hernandez 2014 Plainview (TX) 7 20:52 16
19 Paul Vidales 2014 Sundown (TX) 4 21:00 PR 17
20 Reymundo Montoya 2013 Tulia (TX) 2 21:09 PR 18
21 Omar Guardiola 2015 Sundown (TX) 5 21:10 PR 19
22 Jacobsin Enriquez 2013 Plainview (TX) 8 21:27 PR 102.5
23 Ryan Ramirez 2013 Tulia (TX) 3 21:29 PR 20
24 Misael Velazquez 2014 Tulia (TX) 4 21:32 PR 21
25 Caleb Copeland 2014 Slaton (TX) 2 21:40 PR 22
26 Ryan Robertson 2014 Abernathy (TX) 2 21:42 PR 23
27 Dustin Urias 2012 Slaton (TX) 3 21:48 PR 24
28 Avery Nunez 2013 Plainview (TX) 9 21:49 PR
29 Justin Tovar 2015 Abernathy (TX) 3 21:53 PR 25
30 Reese Harper 2014 Sudan (TX) 2 21:55 PR 26
31 Abraham Lucero 2015 Littlefield (TX) 2 21:56 PR 27
32 Jose Aranda 2014 Tulia (TX) 5 22:01 PR 28
33 Reyna Brandon 2012 Hart (CA) 2 22:07 PR
34 Reagan Southard 2012 Littlefield (TX) 3 22:10 PR 29
35 Jeremy Ybarra 2013 Littlefield (TX) 4 22:13 PR 30
36 Eli Leal 2014 Muleshoe (TX) 1 22:18 PR 31
37 Adrian Gonzales 2014 Floydada (TX) 2 22:23 PR 32
38 Kort Hill 2014 Sudan (TX) 3 22:28 PR 33
39 Zane Mooney 2013 Cotton Center (TX) 1 22:28 PR
40 Zeke Vickers 2012 Petersburg (TX) 2 22:36 PR
41 Joey Reyna 2013 Olton (TX) 1 22:40 PR 34
42 Tyler Renfro 2013 Floydada (TX) 3 22:46 PR 35
43 Austin Taylor 2013 Plains (TX) 1 22:48
44 Garrett Bye 2013 Kress (TX) 1 22:53
45 Absalom Gonzalez 2012 Morton (IL) 1 22:57 PR
46 Joseph Cedillo 2012 Petersburg (TX) 3 23:00 PR
47 Jonathan Luna 2013 Tulia (TX) 6 23:01 PR 36
48 Ryan Chavarria 2013 Floydada (TX) 4 23:32 PR 37
49 Ramon Longoria 2012 Hart (CA) 3 23:35 PR
50 Alberto Garcia 2015 Olton (TX) 2 23:44 38
51 Oscar Zapata 2015 Abernathy (TX) 4 23:48 PR 39
52 Carlos Perez 2015 Olton (TX) 3 23:57 PR 40
53 Gabriel Garza 2015 Olton (TX) 4 24:00 PR 41
54 Lucas Macias 2015 Abernathy (TX) 5 24:17 PR 42
55 Louis Guzman 2012 Muleshoe (TX) 2 24:20 PR 43
56 Hector Flores 2012 Muleshoe (TX) 3 24:23 PR 44
57 Griffin Young 2013 Plains (TX) 2 24:26
58 Luis Briseno 2015 Sudan (TX) 4 24:30 PR 45
59 Blaine Burris 2015 Abernathy (TX) 6 24:34 PR 46
60 Sunny Carrasco 2015 Tulia (TX) 7 24:35 PR 89.4 47
61 Matthew Chavez 2014 Olton (TX) 5 24:41 PR 48
62 Victor Monsivais 2013 Olton (TX) 6 24:47 PR 49
63 Josh Chavarria 2015 Floydada (TX) 5 24:47.7 PR 50
64 Blake Copeland 2014 Slaton (TX) 4 24:50 51
65 Tommy Whitehurst 2014 Sudan (TX) 5 25:08 PR 52
66 Josh Zamora 2012 Littlefield (TX) 5 25:17 PR 53
67 Branden Locke 2015 Sudan (TX) 6 25:28 PR 54
68 Cloudy Carrasco 2015 Tulia (TX) 8 25:29 PR
69 Daniel Templeton 2015 Cotton Center (TX) 2 25:32 PR
70 Bo Atterbury 2013 Slaton (TX) 5 26:05 PR 55
71 Rosario Gonzales 2013 Hart (CA) 4 26:15 PR
72 Aiden McGill 2013 Olton (TX) 7 26:15 56
73 Zach Carthel 2013 Cotton Center (TX) 3 26:19
74 Logan Kelley 2014 Abernathy (TX) 7 26:32 PR 57
75 Carlos Bravo 2012 Olton (TX) 8 26:39 PR
76 Cruz Vasquez 2012 Slaton (TX) 6 26:59 PR 58
77 R. J. Gomez 2013 Floydada (TX) 6 27:22 PR 59
78 Tim Schwertner 2012 Slaton (TX) 7 27:37 PR 79.6 60
79 Tyler Jones 2013 Slaton (TX) 8 27:52
80 Landry Setliff 2013 Kress (TX) 2 28:00 SR
81 Bradley Benavidez 2013 Kress (TX) 3 28:10
82 Hugo Hernandez 2013 Slaton (TX) 9 28:25
83 Torey Jimenez 2012 Olton (TX) 9 28:26 PR
84 Emilio Sandoval 2012 Olton (TX) 10 28:31 PR
85 Noah Del Toro 2015 Muleshoe (TX) 4 28:37 PR 61
86 Sean Hall 2013 Lorenzo (TX) 1 28:45
87 Grey Johnson 2015 Muleshoe (TX) 5 29:21 PR 62
88 Vaughn Spirling 2013 Olton (TX) 11 29:28 PR 74.6
89 Matthew McGowen 2014 Floydada (TX) 7 29:28 PR 63
90 Jayton Moyer 2014 Olton (TX) 12 29:43
91 Tommy Livesay 2014 Olton (TX) 13 29:46
92 Kade Smith 2014 Olton (TX) 14 29:48
93 Pedro Guerrero 2014 Floydada (TX) 8 29:51 PR
94 Chris Alvarado 2014 Morton (IL) 2 30:09 PR
Something wrong on this page? Report it →